COSMOS 2520

Last updated on Sun Apr 12 2026 00:02:54 GMT+0000 (Coordinated Universal Time)

1 42907U 17046A 26101.24442257 .00000139 00000+0 00000+0 0 9991 2 42907 0.0270 115.9806 0000115 64.6777 151.7808 1.00270382 31723
UTC large
Height (km)
Speed (km/s)
/
Latitude / Longitude
Inclination (degrees)
Orbital Period (minutes)
Azimuth
Elevation
Range (km)
Doppler Factor

Next 0 passes for location: London (51.5072 / 0.1276)

Sorry there are no passes over London.
COSMOS 2520